Regional Weather Roundup
Issued by NWS

Home | Current Version | Previous Version | Text Only | Print | Product List | Glossary Off
Versions: 1 2 3 4 5 6 7 8 9 10 11 12 13 14 15 16 17 18 19 20 21 22 23 24 25 26 27 28 29 30 31 32 33 34 35 36 37 38 39 40 41 42 43 44 45 46 47 48 49 50

000
ASUS43 KDTX 211901
RWRMI
MICHIGAN HOURLY REGIONAL WEATHER ROUNDUP
NATIONAL WEATHER SERVICE DETROIT/PONTIAC MI
300 PM EDT MON MAY 21 2018

NOTE: "FAIR" INDICATES FEW OR NO CLOUDS BELOW 12,000 FEET WITH NO
SIGNIFICANT WEATHER AND/OR OBSTRUCTION TO VISIBILITY.

MIZ047>049-052>055-059>063-066>070-074>076-081>083-212000-
SOUTHEAST LOWER MICHIGAN

CITY           SKY/WX    TMP DP  RH WIND       PRES   REMARKS
ADRIAN         CLOUDY    61  52  72 NE7       30.19R
ALMA           LGT RAIN  60  44  56 E9G18     30.16F
ANN ARBOR      LGT RAIN  65  51  60 E7        30.17F
BAD AXE        FAIR      62  38  40 E5        30.20F
CARO           CLOUDY    64  36  35 SE5       30.20R
DETROIT CITY   FAIR      65  48  54 E12       30.19F
DETROIT        CLOUDY    66  44  45 E8        30.17F
FLINT          CLOUDY    65  40  39 SE3       30.19S
GROSSE ILE     PTSUNNY   65  48  54 E6        30.16F
HILLSDALE      LGT RAIN  55  52  88 E12       30.13F
HOWELL         LGT RAIN  64  37  37 E7        30.17F

CITY           SKY/WX    TMP DP  RH WIND       PRES   REMARKS
JACKSON        LGT RAIN  60  51  72 E13       30.15F
LAMBERTVILLE   PTSUNNY   63  52  68 E8        30.15F
LANSING        CLOUDY    60  46  59 E9        30.15F
LAPEER         CLOUDY    64  41  43 CALM      30.20R
MASON          CLOUDY    62  41  46 E8        30.15F
MONROE         PTSUNNY   63  51  65 E10       30.16F
PONTIAC        CLOUDY    64  44  48 SE10      30.18F
PORT HOPE        N/A     53  44  71 E5        30.20F
PORT HURON     FAIR      68  43  40 CALM      30.18F
TRI CITIES     CLOUDY    65  40  39 SE9       30.20F
MIDLAND        LGT RAIN  62  50  65 CALM      30.19F
TROY           PTSUNNY   66  43  42 E8        30.20F
SAGINAW HB     CLOUDY    63  36  36 SE6       30.19S
$$
MIZ043>046-050>051-056>058-064>065-071>073-077>080-212000-
SOUTHWEST LOWER MICHIGAN

CITY           SKY/WX    TMP DP  RH WIND       PRES   REMARKS
BATTLE CREEK   LGT RAIN  58  54  86 SE5       30.14F
BENTON HARBOR  LGT RAIN  59  56  89 E10       30.10R FOG
BIG RAPIDS     LGT RAIN  57  46  67 E8        30.16F
COLDWATER      HVY RAIN  55  54  97 CALM      30.15R VSB 3/4
FREMONT        RAIN      55  50  86 SE6       30.16S
HOLLAND        RAIN      56  53  90 E9        30.13F FOG
GRAND RAPIDS   LGT RAIN  56  52  86 E9        30.15S FOG
IONIA          LGT RAIN  57  49  74 NE3       30.16R
KALAMAZOO      LGT RAIN  57  54  89 VRB3      30.14F
LUDINGTON      LGT RAIN  58  51  79 E8        30.15R
MARSHALL       LGT RAIN  58  55  91 E8        30.13F
MOUNT PLEASANT DRIZZLE   61  45  56 E9        30.18F
MUSKEGON       LGT RAIN  54  49  83 E8        30.15S
SOUTH HAVEN    LGT RAIN  58  56  93 E6        30.12R
$$
MIZ016>042-212000-
NORTHERN LOWER MICHIGAN

CITY           SKY/WX    TMP DP  RH WIND       PRES   REMARKS
ALPENA         FAIR      66  40  38 E7        30.20F
BEAVER ISLAND  FAIR      64  41  42 W6        30.17F
BELLAIRE       FAIR      70  37  29 SE7       30.16F
CADILLAC       LGT RAIN  58  45  60 S5        30.17F
CHARLEVOIX     FAIR      57  44  61 NW7       30.19F
FRANKFORT      PTSUNNY   66  43  43 S13       30.15F
GAYLORD        FAIR      68  39  34 S12       30.18F
HARBOR SPRINGS FAIR      72  38  28 SE7       30.16F
HOUGHTON LAKE  FAIR      63  31  30 S9        30.20S
MANISTEE       LGT RAIN  58  50  75 E8        30.15F
PELLSTON       FAIR      72  40  31 SE7       30.16F
ROGERS CITY    FAIR      62  39  43 NE5       30.19F
TRAVERSE CITY  CLOUDY    69  39  33 SE9       30.15F
$$
MIZ007>008-015-212000-
EASTERN UPPER MICHIGAN

CITY           SKY/WX    TMP DP  RH WIND       PRES   REMARKS
KINROSS        FAIR      74  38  27 S10G16    30.16F
MACKINAC ISLAN FAIR      66  32  27 E5        30.17F
NEWBERRY       FAIR      73  34  24 SE12      30.15F
S. S. MARIE    FAIR      75  41  29 N7        30.14F
$$
MIZ004>006-011>014-085-212000-
CENTRAL UPPER MICHIGAN

CITY           SKY/WX    TMP DP  RH WIND       PRES   REMARKS
MANISTIQUE     FAIR      62  42  48 S5        30.17F
ESCANABA       FAIR      58  43  57 S8        30.16F
SAWYER-GWINN   SUNNY     72  27  18 SE16      30.13F
$$
MIZ001>003-009>011-084-212000-
WESTERN UPPER MICHIGAN

CITY           SKY/WX    TMP DP  RH WIND       PRES   REMARKS
IRON MOUNTAIN  FAIR      72  35  25 SE13G18   30.10F
HOUGHTON       FAIR      70  31  23 E14       30.10F
COPPER HARBOR    N/A     63  37  38 VRB7      30.10F
IRONWOOD       FAIR      74  19  12 SE9G17    30.07F
$$

ABBREVIATIONS USED IN REMARKS
   TC - TEMPERATURE IN CELSIUS
  WCI - WIND CHILL INDEX
   HX - HEAT INDEX
  VSB - VISIBILITY





USA.gov is the U.S. government's official web portal to all federal, state and local government web resources and services.